GFSFLT2_sfc_30mbdewp_186.txt.gz
Dewpoint
28 29 27 27 27 27 27 25 27 27 27 29 28 29 29 29 29 29 29 29 29 28 28 28 31 31 32
27 27 27 27 27 26 24 25 26 27 28 26 26 27 27 28 27 27 27 27 27 27 28 30 30 30 32
26 27 27 27 27 25 23 25 26 27 26 25 26 26 26 26 26 26 26 27 27 28 27 27 27 31 29
27 27 27 27 25 23 23 25 27 28 26 26 25 24 25 26 25 25 26 26 26 28 33 30 31 30 28
26 26 25 23 23 24 24 26 26 26 25 25 23 23 23 24 24 26 26 26 26 31 28 26 28 28 30
26 24 23 23 24 25 25 22 22 25 24 23 22 21 22 22 24 25 26 26 27 32 27 26 27 30 28
25 25 24 25 25 23 22 23 24 23 24 21 21 21 22 22 24 26 26 24 25 26 26 25 27 28 29
26 25 25 26 24 23 24 24 23 22 22 20 21 22 22 24 25 26 26 23 25 26 25 26 27 28 29
26 25 24 23 23 23 22 22 19 19 20 24 22 21 20 21 23 25 24 23 25 25 26 26 28 28 30
22 23 23 23 22 23 22 22 21 18 22 21 21 22 19 22 23 21 23 23 24 25 26 27 28 28 29
21 21 23 22 23 23 23 23 21 20 22 23 22 21 22 21 21 20 21 23 23 24 26 27 26 26 26
21 23 22 21 22 22 23 24 24 23 24 24 22 22 20 19 18 20 20 21 23 23 24 26 26 25 27
21 23 21 21 23 23 23 23 24 24 24 23 23 22 22 19 18 18 20 20 22 23 23 25 24 24 25
21 23 23 21 21 21 20 22 20 20 21 22 22 22 20 20 19 19 19 19 21 22 23 23 22 23 24
21 22 22 22 20 20 20 21 17 18 19 19 21 21 21 21 18 17 18 19 19 20 20 20 20 21 22
22 22 21 22 20 20 19 17 17 17 17 18 18 18 17 16 18 17 16 17 18 18 20 19 18 19 20
22 21 21 20 19 18 18 18 17 16 16 17 17 15 13 13 15 17 17 18 18 19 19 19 19 19 20

GFSFLT2_sfc_30mbdewp_189.txt.gz
Dewpoint
28 28 26 27 27 26 26 24 26 28 29 30 29 28 29 29 29 29 29 29 29 29 28 30 33 32 33
26 26 26 27 27 25 25 24 25 27 29 29 27 28 28 28 28 28 28 28 28 28 28 28 30 32 31
26 27 27 27 26 25 24 25 26 27 27 27 27 26 26 26 27 27 26 27 27 27 27 32 30 30 30
27 27 26 27 24 24 24 25 25 25 26 27 25 25 24 25 24 25 26 27 27 26 27 31 29 27 27
26 26 25 24 24 24 24 24 23 24 24 24 23 24 23 23 23 25 26 26 26 27 32 32 28 26 28
26 24 24 24 24 24 24 22 21 25 23 22 24 22 22 22 23 25 26 27 25 24 26 27 26 27 29
25 25 24 24 25 24 23 23 22 23 23 20 21 21 22 21 23 26 26 27 24 25 26 26 25 27 28
26 25 25 25 24 24 24 22 23 22 22 19 22 21 20 21 22 25 27 26 23 25 26 25 26 28 28
27 25 23 24 23 23 20 21 19 18 20 23 20 20 20 20 23 25 21 21 23 25 25 25 27 29 28
21 21 23 23 22 23 22 20 20 17 22 21 20 21 18 20 22 20 22 21 22 23 24 25 27 26 26
20 21 23 22 21 22 22 22 20 19 21 23 22 21 21 19 20 19 20 20 20 22 23 25 25 24 25
20 20 22 22 21 21 22 23 23 23 23 24 22 21 19 17 16 18 18 19 20 21 23 24 23 23 23
20 20 22 23 22 22 23 22 22 23 22 23 23 22 21 18 18 18 18 18 20 22 20 22 23 23 21
20 21 23 23 22 22 20 20 20 18 18 20 22 22 20 19 19 18 18 17 18 19 20 20 20 21 22
20 21 22 20 20 22 20 20 18 16 16 18 19 20 21 20 18 18 17 17 18 18 19 18 19 20 20
21 21 21 20 20 20 19 17 16 16 16 16 17 16 16 15 19 18 18 17 18 18 19 18 18 18 19
21 20 19 19 19 17 17 16 16 16 16 16 16 14 11 10 14 16 17 17 18 18 18 18 18 18 19

GFSFLT2_sfc_30mbdewp_195.txt.gz
Dewpoint
28 28 28 28 28 27 26 25 25 27 30 31 32 30 30 30 30 30 30 30 30 30 30 30 30 29 29
26 27 27 28 28 26 24 24 25 25 28 29 30 28 28 28 29 29 29 29 29 29 29 29 29 29 30
26 28 28 28 26 25 24 25 24 24 25 27 26 26 26 27 28 27 27 27 28 29 28 29 30 31 32
26 27 27 26 25 23 21 23 22 22 25 24 24 24 25 26 24 24 26 28 27 28 30 27 29 29 29
26 25 23 22 21 23 22 21 21 24 22 19 20 20 21 22 21 24 26 27 27 28 27 30 26 26 27
24 21 23 22 24 23 22 21 19 24 20 19 20 19 19 19 21 24 26 26 26 30 34 26 25 26 28
22 23 22 23 24 23 22 22 20 19 20 18 18 18 19 17 21 24 27 26 24 24 24 25 25 25 26
26 25 25 25 25 24 23 21 19 18 19 17 18 19 18 19 20 23 27 22 22 23 23 23 24 24 26
27 25 24 24 24 21 18 18 16 15 17 19 17 17 18 17 18 22 22 21 21 22 22 23 23 24 26
21 20 21 23 24 21 20 18 17 16 17 17 16 17 16 16 17 17 18 18 19 20 21 22 23 21 21
20 20 19 20 21 21 22 21 20 18 18 19 19 18 18 17 16 16 16 16 17 18 20 21 21 22 21
19 18 18 19 21 23 23 23 23 22 22 21 20 19 18 16 15 15 16 17 18 18 19 21 20 21 21
19 20 20 21 22 22 21 22 22 22 19 20 20 20 19 17 16 17 17 17 18 19 19 19 19 19 20
20 20 22 22 22 20 20 20 19 18 18 19 19 19 18 18 18 17 17 17 17 18 19 19 19 20 20
22 21 21 20 20 19 19 19 18 17 16 17 18 19 19 19 17 16 16 16 17 18 19 19 19 19 20
22 22 20 20 19 19 19 18 17 16 16 16 17 17 16 15 16 17 17 18 18 18 18 18 18 18 18
21 21 20 19 19 17 17 17 16 15 16 16 17 16 13 12 13 14 16 17 17 18 18 18 18 19 18

GFSFLT2_sfc_30mbdewp_198.txt.gz
Dewpoint
28 28 27 27 27 26 26 25 25 26 29 31 32 31 31 31 31 31 31 31 32 31 31 31 32 32 32
28 27 27 27 27 27 25 24 24 23 27 29 30 28 29 29 29 30 30 29 30 30 30 30 30 31 31
25 27 28 28 27 26 24 24 22 22 24 26 25 27 27 28 28 27 26 27 29 29 30 29 29 29 30
24 25 26 27 25 23 20 21 20 20 23 23 22 22 23 25 26 24 26 27 28 29 29 29 28 29 28
23 23 23 21 20 22 21 20 19 23 21 19 17 19 19 20 20 21 25 27 27 28 31 32 34 32 27
22 19 21 20 22 22 22 20 18 23 19 17 18 17 18 19 20 22 25 27 29 26 26 26 26 26 25
20 20 20 21 22 22 22 22 20 19 18 17 17 17 18 17 20 22 24 30 25 24 24 24 24 24 25
24 24 24 24 24 23 23 20 18 16 17 15 16 16 16 17 18 20 23 27 26 23 23 23 23 24 24
26 25 24 24 24 22 19 18 18 14 15 17 16 15 16 16 16 18 19 20 21 21 22 22 22 23 22
20 19 20 21 24 21 20 19 19 18 16 17 17 16 16 15 16 16 16 17 18 19 20 21 22 21 20
19 19 18 18 19 20 21 21 20 20 19 21 20 19 19 18 16 16 16 15 17 18 18 19 20 22 21
18 17 18 20 21 22 22 22 22 21 21 21 22 20 20 19 16 15 16 17 18 18 19 21 20 21 21
19 20 21 22 22 22 22 21 21 21 20 20 21 20 20 18 18 18 18 18 19 19 20 20 20 20 20
21 21 22 22 21 21 20 19 19 19 19 20 20 20 19 19 19 19 18 18 18 19 19 20 20 20 20
22 22 21 21 20 20 20 19 19 18 18 19 20 20 20 20 18 18 17 17 18 19 19 19 20 19 19
23 22 22 21 20 20 20 19 18 17 17 18 19 19 18 18 18 18 19 18 18 19 19 19 19 19 19
23 22 22 21 20 19 19 18 17 17 17 19 18 17 15 14 15 16 17 18 18 18 19 19 19 19 19

GFSFLT2_sfc_30mbdewp_201.txt.gz
Dewpoint
29 30 29 27 29 27 27 26 25 26 27 29 32 32 32 31 32 31 32 32 32 32 32 32 32 33 33
29 28 28 28 28 27 25 23 24 24 25 28 31 29 28 30 30 30 31 29 29 30 30 31 31 31 31
28 28 28 28 27 26 25 25 24 23 22 26 28 26 25 27 28 29 28 27 29 29 30 30 30 29 31
27 26 26 27 25 23 22 23 22 21 23 25 23 21 22 23 24 26 23 26 27 28 29 29 31 32 32
25 23 22 22 21 22 22 22 22 24 23 21 19 20 21 20 21 21 23 25 26 30 28 27 27 26 27
22 20 21 21 22 22 22 22 20 23 20 19 20 19 19 20 20 21 23 25 27 27 25 26 25 25 25
21 21 21 22 23 23 23 23 22 20 18 18 18 17 18 17 19 21 22 25 26 28 29 25 24 24 24
24 24 24 24 24 23 24 22 20 19 17 16 18 17 18 18 19 19 22 22 22 23 23 23 23 23 23
26 25 24 24 24 22 21 20 20 17 18 18 18 18 18 18 17 18 20 19 20 21 21 21 22 22 23
21 21 20 21 23 22 21 21 21 20 19 19 20 19 19 17 18 18 18 18 19 19 20 21 21 22 22
19 19 19 19 19 20 21 22 22 22 22 21 22 21 20 19 18 18 18 18 18 18 19 20 21 22 22
19 18 19 21 22 23 23 23 23 22 22 22 22 22 21 19 18 18 18 18 19 20 20 21 21 20 21
20 21 22 23 23 24 24 23 22 22 22 22 22 22 22 20 19 19 18 18 20 21 20 20 21 21 20
22 22 23 23 23 23 22 22 21 21 22 22 22 22 21 21 20 19 19 18 19 20 20 20 20 20 21
23 23 23 22 22 22 22 21 20 20 20 21 22 22 22 22 19 18 18 19 20 19 20 19 19 19 20
24 24 23 23 23 22 22 22 20 19 19 19 20 20 19 19 20 20 19 18 19 19 19 18 18 19 19
24 24 23 22 21 20 20 20 20 20 19 20 19 18 16 14 15 16 16 16 17 18 19 18 18 18 19

GFSFLT2_sfc_30mbdewp_204.txt.gz
Dewpoint
31 30 28 30 29 28 27 27 25 26 27 28 30 32 33 31 31 32 32 32 32 32 32 32 32 33 33
30 29 28 28 28 27 26 24 24 25 26 27 30 31 30 29 29 31 31 31 30 30 30 31 31 31 31
28 29 28 28 27 26 25 25 25 25 23 23 26 27 26 25 26 27 29 27 27 28 29 30 30 31 33
28 27 27 27 25 22 21 24 23 23 23 24 24 23 22 23 23 23 24 24 26 27 28 30 28 27 27
26 25 23 23 22 23 22 23 22 24 22 21 20 20 22 22 22 22 23 25 26 27 28 26 27 28 27
23 21 20 21 22 23 23 22 19 24 20 19 21 20 20 19 21 22 23 24 26 27 27 27 27 25 25
21 21 21 23 23 24 24 23 22 21 20 18 19 18 19 18 20 22 22 24 25 24 24 24 25 25 24
25 25 25 25 25 24 23 22 21 21 19 15 18 18 19 20 21 21 22 22 22 23 24 24 23 24 24
26 25 24 24 25 22 21 20 20 18 20 18 19 19 19 19 18 21 21 20 21 23 21 22 22 23 23
23 22 21 23 22 22 22 20 21 20 20 20 21 20 18 19 19 19 19 20 20 20 20 22 22 22 22
20 20 19 20 20 22 22 22 21 22 23 22 22 22 21 20 20 19 19 19 19 19 20 21 22 22 21
19 18 19 21 23 24 24 24 24 23 23 23 21 21 21 19 18 18 19 19 19 20 20 21 22 21 21
20 21 22 23 24 23 25 25 24 23 23 23 22 21 21 20 19 19 17 17 19 20 21 20 21 20 20
23 22 23 23 23 24 22 23 21 20 22 22 22 23 20 21 21 19 18 18 18 19 20 21 21 21 20
23 23 24 23 23 23 22 21 20 20 20 20 21 21 22 21 20 19 18 18 19 20 21 20 20 19 19
24 24 23 23 22 22 22 21 20 20 19 19 19 20 18 18 19 18 19 19 20 19 18 18 17 18 18
23 23 23 22 22 21 21 20 19 19 20 19 19 18 15 13 14 16 16 17 18 18 18 17 17 18 19

GFSFLT2_sfc_30mbdewp_207.txt.gz
Dewpoint
31 30 31 29 30 28 29 27 26 27 27 29 30 31 33 32 31 32 32 32 32 32 32 32 32 33 32
30 28 29 30 28 27 26 23 23 25 26 27 27 31 32 30 28 29 30 31 30 29 30 30 31 31 32
29 29 28 28 27 26 25 25 25 26 26 24 25 27 27 26 26 27 26 28 27 28 29 29 30 31 29
28 27 27 26 25 23 21 24 23 23 24 24 24 24 23 24 24 23 24 24 26 28 28 29 28 28 29
27 26 25 24 20 23 21 22 22 24 21 21 20 21 22 22 22 22 24 25 26 28 28 28 28 28 28
24 23 20 21 22 22 22 20 15 24 20 18 21 20 20 19 21 22 24 25 26 27 26 26 26 26 26
22 20 20 22 23 24 23 22 20 21 20 19 19 18 19 19 21 23 24 24 24 24 25 25 26 25 25
23 24 24 25 24 24 22 22 22 21 20 16 19 19 19 20 22 24 21 24 22 23 25 24 24 24 24
27 27 26 26 24 23 21 21 20 19 21 18 19 20 20 20 19 22 23 21 22 22 23 23 23 24 24
23 23 24 24 25 23 22 19 20 19 20 21 21 20 18 20 19 20 20 21 21 21 22 22 23 23 23
20 20 20 20 21 22 22 22 21 21 23 23 22 22 21 20 20 20 20 20 20 20 20 21 22 22 22
19 19 19 21 23 24 24 24 24 23 24 23 21 21 20 19 18 18 19 19 19 19 19 21 21 21 21
19 20 22 23 24 24 24 25 25 24 24 23 23 22 21 20 19 20 19 18 19 20 20 19 19 20 20
22 23 23 24 23 24 23 23 22 21 22 22 22 22 20 20 21 19 19 18 19 19 20 20 20 21 20
23 23 23 24 24 24 23 22 21 20 20 20 21 21 21 20 19 18 18 18 19 19 20 19 19 18 19
24 23 23 23 23 22 22 20 20 20 19 19 18 18 17 17 19 18 18 18 18 18 19 18 17 17 17
23 23 22 22 23 21 21 21 20 19 19 18 17 16 14 12 13 15 15 17 18 16 17 17 17 17 17

GFSFLT2_sfc_30mbdewp_213.txt.gz
Dewpoint
35 34 36 36 38 31 33 30 30 31 31 31 32 32 32 34 35 33 33 34 34 34 34 34 33 34 34
33 32 32 32 30 29 28 26 24 26 28 28 30 30 31 34 33 32 30 31 32 33 32 31 32 33 33
31 30 29 28 27 27 25 25 24 25 27 28 29 28 31 32 31 29 29 29 29 29 29 31 31 31 31
32 30 30 28 26 25 24 24 22 23 25 24 26 27 27 27 27 27 26 26 26 28 29 30 30 30 31
31 29 28 26 25 24 23 22 22 23 22 22 21 19 19 24 25 24 23 25 27 27 29 29 29 29 29
30 28 27 25 23 22 20 18 12 24 21 18 20 19 20 20 21 22 24 25 26 27 27 27 27 28 28
28 26 24 24 23 21 20 18 16 22 20 17 20 17 19 19 22 23 24 25 27 26 25 26 27 27 27
26 23 22 23 22 22 21 20 21 20 21 14 20 18 19 20 23 24 25 26 25 25 24 26 26 26 26
26 27 27 27 25 21 17 16 17 19 20 19 19 19 21 20 20 23 25 25 25 24 24 24 25 25 25
28 27 27 26 26 21 21 13 17 15 21 19 21 20 14 20 19 21 21 23 24 24 24 23 24 23 24
22 23 21 21 21 22 22 20 18 17 23 22 21 22 21 19 21 21 23 23 22 21 22 22 22 23 23
18 18 18 20 22 22 23 23 24 20 23 24 20 21 19 19 19 20 19 20 20 21 21 21 22 21 21
17 18 21 23 24 24 24 24 25 24 25 25 23 22 22 20 19 19 19 18 19 20 20 20 20 20 19
19 22 24 24 23 24 22 23 22 21 23 23 23 22 20 20 20 19 19 18 18 19 19 19 19 19 20
22 22 22 23 23 24 23 22 20 19 20 21 21 21 21 20 18 18 18 17 18 18 19 17 17 18 18
22 22 22 22 22 23 22 21 19 19 19 19 19 17 15 15 20 18 17 17 18 18 18 17 16 16 16
21 21 22 22 23 22 21 21 20 20 20 20 17 16 15 14 14 15 15 15 15 16 17 17 16 16 16

GFSFLT2_sfc_30mbdewp_216.txt.gz
Dewpoint
37 37 38 40 40 40 41 38 38 36 34 33 33 33 33 33 34 35 35 34 35 35 35 35 35 34 34
34 35 35 38 37 36 34 31 29 32 33 32 32 32 32 32 34 35 33 32 32 33 34 34 33 33 33
33 32 31 32 31 30 27 25 24 25 27 28 29 30 30 32 34 34 33 31 31 31 30 31 32 32 32
32 31 31 30 28 26 25 25 23 23 25 26 28 28 29 30 30 29 29 29 28 28 29 30 31 31 31
32 31 30 29 30 29 26 23 22 23 22 22 23 22 20 22 25 27 27 26 26 27 28 29 30 30 30
32 32 31 31 29 27 23 21 20 24 21 19 20 19 19 20 23 25 23 24 26 27 27 29 28 28 28
34 33 31 29 26 23 21 18 15 23 20 15 20 18 18 19 23 24 25 25 26 27 28 27 27 27 28
31 27 26 25 25 23 20 20 21 21 21 12 20 17 18 19 23 24 25 26 28 27 26 26 26 27 26
28 28 28 27 24 21 18 14 15 17 20 17 19 19 20 20 19 23 26 26 27 27 28 26 26 26 26
28 28 28 26 24 18 19 11 16 14 21 17 20 19 10 19 19 20 20 23 24 25 25 24 25 25 24
23 21 20 20 21 21 21 17 15 14 22 20 21 22 20 18 20 21 21 22 22 22 22 22 23 23 23
17 17 18 20 21 22 23 23 23 19 24 24 19 20 18 18 18 20 19 20 21 21 21 21 22 21 21
16 18 20 22 24 24 24 24 24 24 25 24 22 22 21 20 19 19 20 19 20 20 20 20 20 20 19
18 21 24 24 22 24 22 23 22 21 23 24 24 23 20 20 20 19 19 18 18 19 18 19 19 20 19
21 21 22 22 22 24 23 22 20 19 19 21 21 22 21 19 18 18 18 18 18 18 18 17 17 17 17
21 22 21 21 21 23 22 21 20 20 19 19 19 19 16 17 21 18 17 17 17 17 17 16 16 16 16
21 20 20 21 22 22 22 21 20 20 20 19 18 16 15 15 16 18 17 16 16 16 17 17 16 16 16